Location: Mahannah Oil Field
(37.4664°N, 96.6003°W)
Time: 00:59:15
(UTC+00:00)

A-11 Canister half - Pass Details

Date: 24 January 2021
Orbit: 1524 x 1684 km, 47.3° (Epoch: 25 February)

Event Time Altitude Azimuth Distance (km) Brightness Sun altitude
Rises 20:15:24 0° 227° (SW) 4,661 12.6 29.1°
Reaches altitude 10° 20:18:25 10° 226° (SW) 3,682 12.4 28.8°
Maximum altitude 20:27:40 76° 142° (SE) 1,579 9.7 28.0°
Drops below altitude 10° 20:37:08 10° 59° (ENE) 3,767 10.6 27.0°
Sets 20:40:15 0° 58° (ENE) 4,773 11.1 26.7°
